McConnell AFB, KS

7:19 AM CDT on July 17, 2019 (GMT -0500)
McConnell Air Force Base

Weather History for KIAB - May, 2019

Change the Weather History Date:

Wednesday, May 22, 2019

  Actual Average Record
Temperature  
Mean Temperature 61 °F -  
Max Temperature 74 °F 75 °F 93 °F (2000)
Min Temperature 48 °F 55 °F 41 °F (2001)
Degree Days  
Heating Degree Days 4    
Growing Degree Days 11 (Base 50)    
Moisture  
Dew Point 48 °F    
Average Humidity 64    
Maximum Humidity 77    
Minimum Humidity 49    
Precipitation  
Precipitation 0.00 in - - ()
Sea Level Pressure  
Sea Level Pressure 29.74 in    
Wind  
Wind Speed 7 mph (SSW)    
Max Wind Speed 12 mph    
Max Gust Speed -    
Visibility 10 miles    
Events      
Averages and records for this station are not official NWS values.
T = Trace of Precipitation, MM = Missing Value Source: NWS Daily Summary

Daily Weather History Graph

Daily Weather History Graph

Search for Another Location

Airport or City:

Astronomy

May. 22, 2019 Rise Set
Actual Time 6:14 AM CDT 8:37 PM CDT
Civil Twilight 5:44 AM CDT 9:07 PM CDT
Nautical Twilight 5:07 AM CDT 9:44 PM CDT
Astronomical Twilight 4:27 AM CDT 10:25 PM CDT
Moon No Moon Rise 9:24 AM CDT (5/22)
Length of Visible Light 15h 22m
Length of Day
14h 22m
Waning Gibbous, 85% of the Moon is Illuminated
May 22
Waning Gibbous
May 26
Last Quarter
Jun 3
New
Jun 10
First Quarter
Jun 17
Full

Hourly Weather History & Observations

Time (CDT) Temp. Dew Point Humidity Pressure Visibility Wind Dir Wind Speed Gust Speed Precip Events Conditions
12:56 AM 56.3 °F 46.9 °F 71% 29.55 in 10.0 mi SSW 6.9 mph - N/A   Clear
1:56 AM 55.0 °F 46.2 °F 72% 29.55 in 10.0 mi SSW 10.4 mph - N/A   Clear
2:56 AM 52.2 °F 44.4 °F 75% 29.58 in 10.0 mi SW 6.9 mph - N/A   Clear
3:56 AM 50.5 °F 43.3 °F 76% 29.60 in 10.0 mi SW 5.8 mph - N/A   Clear
4:56 AM 49.5 °F 41.9 °F 75% 29.62 in 10.0 mi SW 5.8 mph - N/A   Clear
5:56 AM 48.2 °F 41.4 °F 77% 29.65 in 10.0 mi SW 4.6 mph - N/A   Clear
6:56 AM 48.2 °F 41.4 °F 77% 29.69 in 10.0 mi SSW 5.8 mph - N/A   Clear
7:56 AM 50.9 °F 41.5 °F 70% 29.71 in 10.0 mi WSW 5.8 mph - N/A   Clear
8:56 AM 53.8 °F 42.3 °F 65% 29.72 in 10.0 mi WSW 4.6 mph - N/A   Clear
9:56 AM 56.8 °F 42.3 °F 58% 29.75 in 10.0 mi ESE 3.5 mph - N/A   Clear
10:56 AM 59.9 °F 46.0 °F 60% 29.76 in 10.0 mi Calm Calm - N/A   Clear
11:56 AM 63.0 °F 46.6 °F 55% 29.76 in 10.0 mi South 4.6 mph - N/A   Partly Cloudy
12:56 PM 65.3 °F 46.8 °F 51% 29.78 in 10.0 mi SSE 5.8 mph - N/A   Partly Cloudy
2:56 PM - - N/A% 29.76 in 10.0 mi South 4.6 mph - N/A   Mostly Cloudy
3:56 PM 72.1 °F 55.0 °F 55% 29.76 in 10.0 mi South 6.9 mph - N/A   Partly Cloudy
4:56 PM 73.0 °F 54.9 °F 53% 29.76 in 10.0 mi West 8.1 mph - N/A   Clear
5:56 PM 74.1 °F 53.8 °F 49% 29.80 in 10.0 mi Calm Calm - N/A   Clear
6:56 PM 72.5 °F 53.2 °F 51% 29.78 in 10.0 mi North 6.9 mph - N/A   Clear
7:56 PM 69.4 °F 52.5 °F 55% 29.83 in 10.0 mi North 11.5 mph - N/A   Scattered Clouds
8:56 PM 64.9 °F 54.1 °F 68% 29.83 in 10.0 mi North 10.4 mph - N/A   Clear
9:56 PM 63.0 °F 52.2 °F 68% 29.88 in 10.0 mi NE 10.4 mph - N/A   Clear
10:56 PM 62.1 °F 52.5 °F 71% 29.91 in 10.0 mi NE 10.4 mph - N/A   Clear
11:56 PM 63.9 °F 50.5 °F 62% 29.92 in 10.0 mi NE 11.5 mph - N/A   Mostly Cloudy